Indianapolis, IN

7:36 AM EDT on March 27, 2017 (GMT -0400)
Indianapolis Terry

Weather History for KTYQ - May, 2013

Change the Weather History Date:

Saturday, May 25, 2013

  Actual Average (KEYE) Record (KEYE)
Temperature  
Mean Temperature 53 °F -  
Max Temperature 63 °F 70 °F 84 °F (2007)
Min Temperature 43 °F 52 °F 45 °F (2013)
Degree Days  
Heating Degree Days 12    
Growing Degree Days 3 (Base 50)    
Moisture  
Dew Point 36 °F    
Average Humidity 54    
Maximum Humidity 78    
Minimum Humidity 27    
Precipitation  
Precipitation 0.00 in - - ()
Sea Level Pressure  
Sea Level Pressure 30.33 in    
Wind  
Wind Speed 3 mph (NNW)    
Max Wind Speed 9 mph    
Max Gust Speed -    
Visibility 10 miles    
Events Rain    
Averages and records for this station are not official NWS values.
T = Trace of Precipitation, MM = Missing Value Source: NWS Daily Summary

Daily Weather History Graph

Daily Weather History Graph

Search for Another Location

Airport or City:

Trip Planner

Search our weather history database for the weather conditions in past years. The results will help you decide how hot, cold, wet, or windy it might be!

Date:

Astronomy

May. 25, 2013 Rise Set
Actual Time 6:21 AM EDT 9:02 PM EDT
Civil Twilight 5:50 AM EDT 9:34 PM EDT
Nautical Twilight 5:10 AM EDT 10:14 PM EDT
Astronomical Twilight 4:25 AM EDT 10:58 PM EDT
Moon 9:50 PM EDT (5/25) 6:48 AM EDT (5/25)
Length of Visible Light 15h 44m
Length of Day
14h 41m
Full, 100% of the Moon is Illuminated
May 25
Full
May 31
Last Quarter
Jun 8
New
Jun 16
First Quarter
Jun 23
Full

Hourly Weather History & Observations

Time (EDT) Temp. Windchill Dew Point Humidity Pressure Visibility Wind Dir Wind Speed Gust Speed Precip Events Conditions
12:15 AM 47.5 °F - 38.3 °F 70% 30.34 in 10.0 mi NNW 3.5 mph - N/A   Clear
12:35 AM 48.4 °F - 36.3 °F 63% 30.34 in 10.0 mi North 3.5 mph - N/A   Clear
12:55 AM 49.3 °F - 36.3 °F 61% 30.34 in 10.0 mi North 4.6 mph - N/A   Clear
1:15 AM 47.8 °F - 35.6 °F 63% 30.34 in 10.0 mi North 5.8 mph - N/A   Clear
1:35 AM 47.8 °F - 36.3 °F 64% 30.34 in 10.0 mi North 6.9 mph - N/A   Clear
1:55 AM 48.2 °F - 36.0 °F 63% 30.35 in 10.0 mi North 6.9 mph - N/A   Clear
2:15 AM 47.5 °F - 35.8 °F 64% 30.35 in 10.0 mi NNW 4.6 mph - N/A   Clear
2:35 AM 46.8 °F - 35.6 °F 65% 30.36 in 10.0 mi North 4.6 mph - N/A   Clear
2:55 AM 46.0 °F 44.8 °F 35.6 °F 67% 30.35 in 10.0 mi NNW 3.5 mph - N/A   Clear
3:15 AM 45.1 °F - 35.1 °F 68% 30.34 in 10.0 mi Calm Calm - N/A   Clear
3:35 AM 44.6 °F - 35.6 °F 71% 30.33 in 10.0 mi Calm Calm - N/A   Clear
3:55 AM 43.7 °F 40.3 °F 35.2 °F 72% 30.32 in 10.0 mi NNE 5.8 mph - N/A   Clear
4:15 AM 43.3 °F 41.7 °F 35.2 °F 73% 30.32 in 10.0 mi NNE 3.5 mph - N/A   Clear
4:35 AM 43.9 °F - 34.9 °F 71% 30.32 in 10.0 mi Calm Calm - N/A   Clear
4:55 AM 43.7 °F - 35.1 °F 72% 30.32 in 10.0 mi Calm Calm - N/A   Clear
5:15 AM 43.7 °F - 35.4 °F 73% 30.31 in 10.0 mi Calm Calm - N/A   Clear
5:35 AM 43.9 °F 42.3 °F 35.6 °F 73% 30.31 in 10.0 mi NE 3.5 mph - N/A   Clear
5:55 AM 43.9 °F - 35.6 °F 73% 30.32 in 10.0 mi Calm Calm - N/A   Clear
6:15 AM 43.9 °F - 35.6 °F 73% 30.32 in 10.0 mi Calm Calm - N/A   Clear
6:35 AM 43.2 °F - 35.8 °F 75% 30.33 in 10.0 mi Calm Calm - N/A   Clear
6:55 AM 43.7 °F - 37.2 °F 78% 30.34 in 10.0 mi Calm Calm - N/A   Clear
7:15 AM 45.7 °F - 37.8 °F 74% 30.34 in 10.0 mi Calm Calm - N/A   Scattered Clouds
7:35 AM 46.9 °F - 37.9 °F 71% 30.34 in 10.0 mi NE 4.6 mph - N/A   Scattered Clouds
7:55 AM 47.5 °F - 37.8 °F 69% 30.36 in 10.0 mi Calm Calm - N/A   Clear
8:15 AM 48.6 °F - 38.3 °F 68% 30.37 in 10.0 mi NNE 3.5 mph - N/A   Clear
8:35 AM 49.5 °F - 39.0 °F 67% 30.38 in 10.0 mi North 4.6 mph - N/A   Scattered Clouds
8:55 AM 50.2 °F - 39.0 °F 66% 30.39 in 10.0 mi North 3.5 mph - N/A   Overcast
9:15 AM 50.9 °F - 39.2 °F 64% 30.39 in 10.0 mi Calm Calm - N/A   Mostly Cloudy
9:35 AM 52.0 °F - 40.1 °F 64% 30.37 in 10.0 mi ENE 3.5 mph - N/A   Overcast
9:55 AM 52.9 °F - 40.3 °F 62% 30.37 in 10.0 mi ESE 5.8 mph - N/A   Overcast
10:15 AM 53.6 °F - 40.6 °F 62% 30.37 in 10.0 mi SSE 4.6 mph - N/A   Overcast
10:35 AM 54.5 °F - 41.5 °F 62% 30.39 in 10.0 mi SW 5.8 mph - N/A   Mostly Cloudy
10:55 AM 54.5 °F - 41.2 °F 61% 30.38 in 10.0 mi SW 3.5 mph - N/A   Overcast
11:15 AM 55.6 °F - 41.7 °F 60% 30.37 in 10.0 mi South 3.5 mph - N/A   Overcast
11:35 AM 56.8 °F - 41.4 °F 56% 30.38 in 10.0 mi SSW 3.5 mph - N/A   Overcast
11:55 AM 58.3 °F - 40.5 °F 52% 30.37 in 10.0 mi SSW 4.6 mph - N/A   Scattered Clouds
12:15 PM 59.4 °F - 39.0 °F 47% 30.37 in 10.0 mi SSE 4.6 mph - N/A   Scattered Clouds
12:35 PM 60.1 °F - 37.4 °F 43% 30.36 in 10.0 mi WSW 3.5 mph - N/A   Mostly Cloudy
12:55 PM 60.3 °F - 37.2 °F 42% 30.36 in 10.0 mi SW 3.5 mph - N/A   Overcast
1:15 PM 61.0 °F - 37.0 °F 41% 30.35 in 10.0 mi SW 6.9 mph - N/A   Overcast
1:35 PM 61.0 °F - 35.1 °F 38% 30.36 in 10.0 mi WNW 3.5 mph - N/A   Overcast
1:55 PM 61.0 °F - 34.5 °F 37% 30.36 in 10.0 mi West 3.5 mph - N/A   Overcast
2:15 PM 62.1 °F - 31.5 °F 32% 30.36 in 10.0 mi West 5.8 mph - N/A   Overcast
2:35 PM 63.1 °F - 29.3 °F 28% 30.36 in 10.0 mi West 6.9 mph - N/A   Overcast
2:55 PM 62.6 °F - 30.4 °F 30% 30.35 in 10.0 mi West 6.9 mph - N/A   Overcast
3:15 PM 62.8 °F - 28.4 °F 27% 30.34 in 10.0 mi NW 3.5 mph - N/A   Overcast
3:35 PM 62.6 °F - 31.8 °F 32% 30.33 in 10.0 mi NW 5.8 mph - N/A   Overcast
3:55 PM 61.9 °F - 31.8 °F 32% 30.32 in 10.0 mi North 4.6 mph - N/A   Overcast
4:15 PM 61.9 °F - 32.0 °F 33% 30.31 in 10.0 mi Calm Calm - N/A   Overcast
4:35 PM 61.9 °F - 31.5 °F 32% 30.31 in 10.0 mi Calm Calm - N/A   Overcast
4:55 PM 61.9 °F - 32.0 °F 33% 30.30 in 10.0 mi Calm Calm - N/A   Overcast
5:15 PM 61.9 °F - 31.6 °F 32% 30.30 in 10.0 mi Calm Calm - N/A   Overcast
5:35 PM 61.9 °F - 31.1 °F 31% 30.29 in 10.0 mi Calm Calm - N/A   Overcast
5:55 PM 62.2 °F - 31.6 °F 32% 30.27 in 10.0 mi ENE 3.5 mph - N/A   Overcast
6:15 PM 62.1 °F - 31.1 °F 31% 30.25 in 10.0 mi East 3.5 mph - N/A   Overcast
6:35 PM 62.6 °F - 31.5 °F 31% 30.23 in 10.0 mi ESE 4.6 mph - N/A   Mostly Cloudy
6:55 PM 62.6 °F - 29.3 °F 28% 30.25 in 10.0 mi ESE 4.6 mph - N/A   Mostly Cloudy
7:15 PM 62.1 °F - 30.4 °F 30% 30.26 in 10.0 mi ENE 3.5 mph - N/A   Overcast
7:35 PM 61.7 °F - 32.0 °F 33% 30.28 in 10.0 mi NNE 3.5 mph - N/A   Overcast
7:55 PM 61.7 °F - 31.8 °F 33% 30.28 in 10.0 mi North 4.6 mph - N/A   Overcast
8:15 PM 61.7 °F - 31.8 °F 33% 30.29 in 10.0 mi North 3.5 mph - N/A   Overcast
8:35 PM 60.8 °F - 33.3 °F 36% 30.28 in 10.0 mi North 3.5 mph - N/A   Overcast
8:55 PM 59.7 °F - 36.9 °F 43% 30.28 in 10.0 mi North 3.5 mph - N/A   Light Drizzle
9:15 PM 58.6 °F - 39.0 °F 48% 30.29 in 10.0 mi North 9.2 mph - N/A Rain Light Rain
9:35 PM 57.2 °F - 42.6 °F 58% 30.29 in 10.0 mi North 4.6 mph - N/A   Light Drizzle
9:55 PM 56.5 °F - 43.2 °F 61% 30.29 in 10.0 mi North 3.5 mph - N/A   Overcast
10:15 PM 56.3 °F - 43.5 °F 62% 30.30 in 10.0 mi NNW 3.5 mph - N/A   Overcast
10:35 PM 55.6 °F - 44.2 °F 66% 30.31 in 10.0 mi WNW 3.5 mph - N/A   Overcast
10:55 PM 55.8 °F - 43.3 °F 63% 30.31 in 10.0 mi WNW 3.5 mph - N/A   Mostly Cloudy
11:15 PM 55.4 °F - 42.3 °F 61% 30.32 in 10.0 mi WNW 3.5 mph - N/A   Scattered Clouds
11:35 PM 55.0 °F - 41.5 °F 60% 30.31 in 10.0 mi WNW 3.5 mph - N/A   Clear
11:55 PM 54.9 °F - 40.1 °F 58% 30.31 in 10.0 mi West 5.8 mph - N/A   Clear